Snowfall_Accumulation
0.0 0.0 0.0 0.0 0.0 0.0 0.0 0.0 15.2 0.0 0.0 11.7 18.9 20.6 4.7 0.0 0.0 0.0 0.2 0.5 1.0 2.8 2.6 4.3 6.8 5.4 4.3 2.9 5.8 3.0 0.9 0.3 0.8 1.2 0.0 0.0 0.0 0.0 0.1 5.3 3.7 4.8 4.8 1.2
0.0 0.0 0.0 0.0 0.0 0.0 0.0 13.8 4.4 0.0 0.0 32.5 19.6 1.3 0.6 0.1 0.0 0.2 0.8 1.1 0.3 1.3 1.8 3.1 2.4 2.7 1.2 0.3 6.1 4.1 2.4 0.7 1.6 4.6 0.0 0.0 0.3 0.1 0.1 2.1 3.4 2.7 4.2 0.0
0.0 0.0 0.0 0.0 0.0 0.0 0.0 12.6 42.1 0.0 0.0 0.6 8.3 5.8 2.6 1.0 0.0 0.1 0.0 0.6 0.2 1.9 2.1 2.2 0.3 0.0 0.4 0.0 2.1 0.0 0.0 1.2 0.2 0.4 2.1 1.2 1.8 0.0 0.6 3.8 5.6 0.2 0.4 0.1
0.0 0.0 0.0 0.0 0.0 0.0 0.0 10.8 32.5 13.4 41.4 33.9 19.4 18.0 15.9 11.4 10.9 5.4 2.7 4.7 4.4 5.6 8.8 2.8 1.6 0.1 0.3 0.0 0.0 3.1 1.5 6.2 0.0 0.0 0.6 1.9 2.0 0.7 0.4 3.1 0.5 2.4 0.0 0.0
0.0 0.0 0.0 0.0 0.0 0.0 0.0 8.4 10.9 11.9 22.1 19.7 19.9 20.9 22.3 13.1 12.4 13.5 10.7 12.6 10.5 10.6 15.9 11.7 11.7 8.0 6.4 5.4 1.0 2.4 6.2 12.6 5.8 2.8 0.0 0.9 2.1 0.4 0.4 0.3 0.1 0.2 0.0 0.0
0.0 0.0 0.0 0.0 0.0 0.0 0.0 0.0 0.0 8.5 12.6 16.8 21.4 23.2 13.0 10.7 7.4 4.7 5.5 8.6 8.9 7.7 7.4 4.6 1.9 1.4 1.6 4.8 7.9 9.2 15.2 17.6 15.7 11.4 1.6 3.7 3.6 0.3 0.2 0.0 0.4 0.6 3.2 3.6
0.0 0.0 0.0 0.0 0.0 0.0 0.0 0.0 0.0 21.5 22.6 14.2 14.1 12.4 8.5 7.3 5.9 10.4 4.2 4.6 9.1 0.1 0.1 0.1 0.2 0.4 0.5 0.8 0.8 1.0 10.8 13.0 21.3 16.0 8.2 18.7 0.4 0.1 0.0 0.2 0.7 0.6 0.4 0.0
0.0 0.0 0.0 0.0 0.0 0.0 0.0 0.0 0.2 18.3 24.6 9.1 7.8 8.4 8.1 5.9 4.0 9.2 6.9 2.4 1.2 0.4 0.9 10.0 8.4 4.7 6.3 3.7 1.5 2.1 3.1 14.7 27.0 20.9 14.4 3.7 0.8 0.1 0.1 0.7 1.0 0.2 0.0 0.0
0.0 0.0 0.0 0.0 0.0 0.0 0.0 0.0 0.0 6.0 27.7 10.5 5.3 6.4 7.4 10.4 13.8 13.0 6.0 0.0 0.0 0.7 9.7 16.7 15.3 6.3 2.9 2.0 2.2 1.6 3.9 11.3 31.6 29.0 23.9 10.0 0.8 0.3 0.1 0.2 1.6 0.0 0.0 0.0
0.0 0.0 0.0 0.0 0.0 0.0 0.0 0.0 0.0 1.3 28.3 5.5 3.3 7.9 9.9 9.3 11.6 13.5 8.0 6.9 4.7 2.2 17.9 21.1 12.8 5.0 2.8 3.7 1.7 2.3 5.7 12.1 26.7 23.6 30.1 11.9 2.2 0.5 0.5 3.7 1.3 0.1 0.0 0.0
0.0 0.0 0.0 0.0 0.0 0.0 0.0 0.0 0.0 0.0 15.9 6.5 3.5 4.9 7.6 9.0 9.4 13.4 11.1 14.7 15.8 17.7 24.7 17.2 9.5 8.0 4.7 3.5 2.6 2.6 2.8 5.2 6.5 12.3 23.2 10.2 0.7 0.2 1.5 1.3 0.1 0.1 0.0 0.0
0.0 0.0 0.0 0.0 0.0 0.0 0.0 0.0 0.0 0.0 12.8 12.9 0.0 0.0 0.0 6.3 7.1 12.1 15.0 14.4 9.5 10.3 16.2 15.9 9.1 7.5 5.9 3.2 4.6 1.6 5.0 3.8 3.6 2.4 2.4 0.5 0.8 1.1 1.2 0.7 0.3 0.0 0.2 0.1
0.0 0.0 0.0 0.0 0.0 0.0 0.0 0.0 0.0 1.6 21.7 13.1 3.9 3.8 1.6 0.2 3.3 1.3 17.6 13.1 9.1 10.0 6.1 12.5 13.1 14.0 7.2 6.2 4.5 2.4 1.7 3.0 4.9 3.7 1.7 0.6 0.2 0.7 0.5 0.0 0.1 0.0 0.1 0.1
0.0 0.0 0.0 0.0 0.0 0.0 0.0 0.0 0.0 0.0 20.7 25.5 6.6 0.0 1.4 0.0 0.0 0.6 2.8 6.3 7.7 10.3 11.5 24.6 21.7 15.5 3.6 3.0 1.7 1.8 1.3 1.1 1.6 2.9 3.4 1.7 1.4 0.6 0.5 0.3 0.0 0.0 0.0 0.0
0.0 0.0 0.0 0.0 0.0 0.0 0.0 0.0 0.0 0.0 4.3 24.0 7.2 2.3 1.9 0.0 0.0 0.9 1.1 3.2 8.2 18.8 26.2 30.2 20.4 8.3 8.7 7.3 5.4 5.0 2.8 3.1 1.9 1.0 0.5 1.6 0.6 0.2 0.1 1.2 0.6 0.3 0.1 0.0
0.0 0.0 0.0 0.0 0.0 0.0 0.0 17.3 0.0 0.0 0.0 35.6 22.5 4.8 2.9 0.7 0.0 0.4 2.5 2.8 10.3 18.7 23.5 22.4 12.7 6.5 9.2 17.7 6.7 2.7 3.3 3.8 3.9 3.8 1.9 1.9 1.1 1.0 0.9 1.6 1.2 0.9 0.4 0.0
0.0 0.0 0.0 0.0 0.0 0.0 13.6 9.3 0.5 0.0 0.0 37.5 29.1 13.6 4.4 2.2 1.2 1.8 2.7 3.7 8.2 14.2 22.9 17.4 9.5 6.5 15.1 21.2 6.9 2.6 2.7 3.2 3.8 5.0 4.1 3.3 3.2 3.4 1.7 2.1 2.5 2.9 2.0 0.6
0.0 0.0 0.0 0.0 0.0 0.0 9.3 2.0 0.0 0.0 12.4 32.5 35.6 14.1 5.4 2.6 6.3 5.6 2.8 7.9 12.2 14.2 13.9 6.9 2.8 4.7 13.7 13.0 2.9 3.1 3.2 3.3 3.1 3.6 3.7 4.1 4.9 4.5 4.3 3.9 3.5 3.6 4.2 4.6
0.0 0.0 0.0 0.0 3.4 22.3 13.5 0.0 4.3 0.0 10.7 29.1 21.3 9.1 7.0 1.5 4.2 4.9 6.6 7.5 17.9 8.7 9.4 2.9 2.8 5.4 7.9 2.3 2.7 2.8 2.9 3.8 4.0 4.2 4.0 4.4 3.6 3.4 3.6 3.7 3.8 3.1 4.2 4.2
0.0 0.0 23.4 44.4 19.5 0.0 3.3 10.7 25.8 34.5 32.8 25.6 13.6 6.1 7.1 3.9 6.2 7.3 6.1 9.3 8.9 10.3 2.6 1.0 8.6 1.4 1.5 2.4 3.6 4.3 4.7 4.3 5.0 5.2 7.1 4.6 4.2 2.7 3.4 3.6 3.8 3.2 3.5 3.7
2.1 36.3 32.5 15.2 1.2 7.3 16.3 44.9 40.9 28.2 19.6 7.6 6.2 5.7 5.3 1.7 9.0 8.8 6.9 14.6 9.6 11.5 6.3 4.5 5.4 4.3 7.2 5.9 5.7 6.1 5.1 5.1 5.2 5.4 5.8 6.1 7.4 6.9 4.8 4.1 3.4 2.8 2.9 2.8
0.2 5.1 6.6 13.4 21.3 46.2 44.2 32.8 17.2 5.9 3.0 2.8 6.7 5.6 3.1 5.3 3.7 11.7 11.9 13.0 12.1 10.1 9.0 13.3 6.1 6.5 3.7 5.8 7.3 6.2 4.7 5.2 5.1 5.4 6.4 6.4 5.8 6.5 7.1 5.6 5.4 4.9 4.7 4.7
11.4 32.8 49.1 46.1 45.1 39.4 25.4 10.0 6.9 3.1 4.0 4.9 6.9 6.3 6.8 9.3 12.0 17.7 12.9 13.9 7.6 1.7 8.3 6.3 6.0 3.7 4.2 5.2 5.8 5.0 6.2 8.4 7.0 6.3 6.6 7.2 7.0 6.4 7.6 7.3 5.0 4.8 4.6 4.7
37.4 52.9 47.5 30.7 27.6 9.6 5.8 4.3 3.8 2.5 1.8 1.7 3.5 5.6 9.5 10.3 17.5 18.2 17.1 8.9 6.1 9.4 7.0 5.2 2.7 3.3 4.1 4.3 4.1 4.6 4.5 6.3 7.0 7.9 7.4 7.6 7.9 7.1 6.5 6.1 5.0 4.6 3.5 3.2
53.0 41.9 27.8 16.0 6.0 5.1 6.3 5.5 3.5 3.0 3.6 6.1 7.2 10.5 9.9 12.1 23.2 15.5 9.5 10.6 8.9 8.0 5.7 3.5 2.5 3.0 3.1 3.0 3.0 3.7 4.3 5.6 6.0 5.5 5.0 6.5 6.4 6.9 5.7 4.7 4.9 4.1 3.7 2.9
47.9 32.8 12.4 2.6 2.6 3.9 4.7 6.0 6.2 5.4 6.8 10.0 16.3 21.7 19.9 14.1 15.4 12.9 6.9 7.9 5.2 5.5 4.0 2.8 2.8 2.5 2.1 2.5 2.5 3.3 4.8 5.2 6.6 7.7 5.3 4.7 6.6 6.6 5.3 4.2 4.1 3.9 3.4 3.7
43.1 16.5 3.4 3.5 4.3 6.7 6.8 7.5 8.4 9.5 13.9 20.5 26.0 25.6 13.2 14.3 11.3 7.1 4.3 4.5 3.8 4.3 3.6 2.9 2.7 3.5 3.5 3.2 2.5 2.9 3.8 3.7 5.4 8.1 5.9 6.1 7.6 8.6 7.2 5.2 4.1 3.7 3.9 4.8